Terug naar catalogus

ATLAS 5 CENTAUR DEB

LostHEO
NORAD 44012·DEBRIS·🇺🇸 United States

Gelanceerd Sep 17, 2014 vanaf Cape Canaveral Space Force Station

Loading…

Volgende Passages (komende 24 uur)

TLE

VerouderdSource: Space-Track

Epoch: Nov 13, 2023, 06:16 UTC

1 44012U 14055BT  23317.26173977 -.00000111  00000-0  00000+0 0  9997
2 44012  20.8522 268.8807 4583234 305.2062  19.9528  1.75154586 32616

Volg ATLAS 5 CENTAUR DEB in realtime met AllMySat

Download on the App Store